When you browse on this site, cookies collect data to enhance your experience and personalize the content and advertising you see.
Visit our Privacy Policy to learn more. By continuing to use the site, you agree to this use of cookies and data.
  • In United Kingdom
  • List of Countries
  • For 7 days
  • Water Temperature
  • Satellite Maps
  • Weather Map
  • Weather Widgets
  • user-avatar
    Login

    Hourly Weather Idzhewan

    Today, 25 March, Monday

    Time Temperature Precipitation Wind Pressure Humidity
    00:00 +3°C° 0.3 mm 1 mps 688 mmHg 90%
    01:00 +3°C° 0.1 mm 1 mps 688 mmHg 90%
    02:00 +2°C° 0.1 mm 1 mps 688 mmHg 90%
    03:00 +1°C° 0 mm 2 mps 688 mmHg 88%
    04:00 +2°C° 0 mm 1 mps 688 mmHg 88%
    05:00 +1°C° 0 mm 1 mps 688 mmHg 88%
    06:00 +1°C° 0 mm 1 mps 688 mmHg 87%
    07:00 +3°C° 0 mm 1 mps 688 mmHg 80%
    08:00 +4°C° 0 mm 1 mps 688 mmHg 73%
    09:00 +5°C° 0 mm 1 mps 688 mmHg 65%
    10:00 +5°C° 0 mm 2 mps 688 mmHg 63%
    11:00 +6°C° 0 mm 2 mps 688 mmHg 61%
    12:00 +6°C° 0 mm 2 mps 688 mmHg 58%
    13:00 +7°C° 0.1 mm 2 mps 688 mmHg 59%
    14:00 +7°C° 0.1 mm 2 mps 688 mmHg 60%
    15:00 +7°C° 0.1 mm 2 mps 688 mmHg 61%
    16:00 +6°C° 0.2 mm 2 mps 688 mmHg 69%
    17:00 +5°C° 0.2 mm 2 mps 688 mmHg 76%
    18:00 +4°C° 0.2 mm 2 mps 688 mmHg 83%
    19:00 +4°C° 0.3 mm 2 mps 689 mmHg 86%
    20:00 +4°C° 0.3 mm 1 mps 689 mmHg 90%
    21:00 +4°C° 0.3 mm 1 mps 690 mmHg 93%
    22:00 +4°C° 0.4 mm 1 mps 690 mmHg 93%
    23:00 +4°C° 0.4 mm 1 mps 690 mmHg 94%

    Tomorrow, 26 March, Tuesday

    Time Temperature Precipitation Wind Pressure Humidity
    00:00 +4°C° 0.4 mm 1 mps 690 mmHg 94%
    01:00 +3°C° 0.3 mm 1 mps 690 mmHg 94%
    02:00 +3°C° 0.3 mm 1 mps 690 mmHg 95%
    03:00 +3°C° 0.3 mm 1 mps 690 mmHg 95%
    04:00 +3°C° 0.2 mm 1 mps 690 mmHg 95%
    05:00 +3°C° 0.2 mm 1 mps 690 mmHg 95%
    06:00 +3°C° 0.2 mm 1 mps 690 mmHg 95%
    07:00 +4°C° 0.1 mm 1 mps 690 mmHg 93%
    08:00 +4°C° 0.1 mm 1 mps 690 mmHg 91%
    09:00 +5°C° 0.1 mm 1 mps 690 mmHg 89%
    10:00 +5°C° 0.1 mm 2 mps 690 mmHg 87%
    11:00 +5°C° 0.1 mm 2 mps 690 mmHg 86%
    12:00 +6°C° 0.1 mm 2 mps 689 mmHg 84%
    13:00 +6°C° 0.1 mm 2 mps 689 mmHg 83%
    14:00 +7°C° 0.1 mm 2 mps 689 mmHg 81%
    15:00 +7°C° 0.1 mm 2 mps 688 mmHg 80%
    16:00 +6°C° 0 mm 2 mps 688 mmHg 82%
    17:00 +6°C° 0 mm 2 mps 688 mmHg 84%
    18:00 +7°C° 0 mm 1 mps 688 mmHg 85%
    19:00 +6°C° 0 mm 1 mps 689 mmHg 87%
    20:00 +5°C° 0 mm 0 mps 689 mmHg 88%
    21:00 +4°C° 0 mm 0 mps 689 mmHg 89%
    22:00 +4°C° 0 mm 0 mps 689 mmHg 89%
    23:00 +4°C° 0 mm 0 mps 689 mmHg 89%

    Day after tomorrow, 27 March, Wednesday

    Time Temperature Precipitation Wind Pressure Humidity
    00:00 +4°C° 0 mm 1 mps 689 mmHg 89%
    01:00 +4°C° 0 mm 1 mps 689 mmHg 88%
    02:00 +4°C° 0 mm 1 mps 689 mmHg 87%
    03:00 +4°C° 0 mm 1 mps 689 mmHg 86%
    04:00 +4°C° 0 mm 1 mps 689 mmHg 84%
    05:00 +3°C° 0 mm 2 mps 689 mmHg 82%
    06:00 +3°C° 0 mm 2 mps 689 mmHg 80%
    07:00 +5°C° 0 mm 2 mps 689 mmHg 76%
    08:00 +8°C° 0 mm 1 mps 689 mmHg 72%
    09:00 +9°C° 0 mm 1 mps 689 mmHg 68%
    10:00 +10°C° 0 mm 2 mps 689 mmHg 64%
    11:00 +12°C° 0 mm 2 mps 689 mmHg 61%
    12:00 +14°C° 0 mm 2 mps 689 mmHg 58%
    13:00 +14°C° 0 mm 2 mps 689 mmHg 57%
    14:00 +14°C° 0 mm 2 mps 689 mmHg 55%
    15:00 +15°C° 0 mm 2 mps 689 mmHg 54%
    16:00 +14°C° 0 mm 2 mps 689 mmHg 57%
    17:00 +12°C° 0 mm 2 mps 689 mmHg 60%
    18:00 +11°C° 0 mm 1 mps 689 mmHg 63%
    19:00 +10°C° 0 mm 1 mps 690 mmHg 65%
    20:00 +9°C° 0 mm 1 mps 690 mmHg 68%
    21:00 +8°C° 0 mm 1 mps 691 mmHg 70%
    22:00 +8°C° 0 mm 1 mps 691 mmHg 71%
    23:00 +7°C° 0 mm 1 mps 691 mmHg 72%

    28 March, Thursday

    Time Temperature Precipitation Wind Pressure Humidity
    00:00 +7°C° 0 mm 1 mps 691 mmHg 73%
    01:00 +6°C° 0 mm 1 mps 691 mmHg 74%
    02:00 +6°C° 0 mm 1 mps 692 mmHg 75%
    03:00 +6°C° 0 mm 1 mps 692 mmHg 75%
    04:00 +6°C° 0 mm 1 mps 692 mmHg 76%
    05:00 +5°C° 0 mm 1 mps 692 mmHg 76%
    06:00 +5°C° 0 mm 1 mps 692 mmHg 77%
    07:00 +7°C° 0 mm 1 mps 692 mmHg 73%
    08:00 +8°C° 0 mm 1 mps 693 mmHg 70%
    09:00 +9°C° 0 mm 1 mps 693 mmHg 67%
    10:00 +10°C° 0.2 mm 1 mps 693 mmHg 67%
    11:00 +9°C° 0.2 mm 2 mps 692 mmHg 67%
    12:00 +9°C° 0.2 mm 2 mps 692 mmHg 67%
    13:00 +9°C° 0.5 mm 2 mps 692 mmHg 69%
    14:00 +9°C° 0.5 mm 2 mps 691 mmHg 72%
    15:00 +8°C° 0.5 mm 2 mps 691 mmHg 74%
    16:00 +8°C° 0.6 mm 2 mps 691 mmHg 78%
    17:00 +7°C° 0.6 mm 2 mps 691 mmHg 81%
    18:00 +6°C° 0.6 mm 2 mps 691 mmHg 85%
    19:00 +7°C° 0.7 mm 1 mps 692 mmHg 86%
    20:00 +7°C° 0.7 mm 1 mps 692 mmHg 88%
    21:00 +6°C° 0.7 mm 1 mps 693 mmHg 89%
    22:00 +6°C° 0.6 mm 1 mps 692 mmHg 90%
    23:00 +6°C° 0.6 mm 1 mps 692 mmHg 91%

    29 March, Friday

    Time Temperature Precipitation Wind Pressure Humidity
    00:00 +6°C° 0.6 mm 1 mps 692 mmHg 91%
    01:00 +5°C° 0.2 mm 1 mps 692 mmHg 92%
    02:00 +4°C° 0.2 mm 0 mps 692 mmHg 92%
    03:00 +4°C° 0.2 mm 0 mps 692 mmHg 93%
    04:00 +4°C° 0.1 mm 0 mps 692 mmHg 93%
    05:00 +3°C° 0.1 mm 0 mps 692 mmHg 93%
    06:00 +3°C° 0.1 mm 0 mps 692 mmHg 93%
    07:00 +5°C° 0.2 mm 1 mps 692 mmHg 91%
    08:00 +6°C° 0.2 mm 1 mps 691 mmHg 89%
    09:00 +6°C° 0.2 mm 1 mps 691 mmHg 87%
    10:00 +5°C° 0.7 mm 2 mps 691 mmHg 88%
    11:00 +5°C° 0.7 mm 2 mps 690 mmHg 88%
    12:00 +5°C° 0.7 mm 2 mps 690 mmHg 88%
    13:00 +5°C° 0.9 mm 2 mps 689 mmHg 88%
    14:00 +5°C° 0.9 mm 2 mps 689 mmHg 89%
    15:00 +5°C° 0.9 mm 2 mps 689 mmHg 89%
    16:00 +5°C° 1.3 mm 2 mps 689 mmHg 90%
    17:00 +4°C° 1.3 mm 2 mps 689 mmHg 91%
    18:00 +4°C° 1.3 mm 2 mps 689 mmHg 93%
    19:00 +3°C° 1 mm 2 mps 690 mmHg 92%
    20:00 +4°C° 1 mm 1 mps 690 mmHg 92%
    21:00 +3°C° 1 mm 1 mps 691 mmHg 92%
    22:00 +3°C° 0.7 mm 1 mps 691 mmHg 92%
    23:00 +3°C° 0.7 mm 1 mps 691 mmHg 92%

    30 March, Saturday

    Time Temperature Precipitation Wind Pressure Humidity
    00:00 +2°C° 0.7 mm 1 mps 691 mmHg 92%
    01:00 +2°C° 0.6 mm 1 mps 690 mmHg 92%
    02:00 +2°C° 0.6 mm 1 mps 690 mmHg 92%
    03:00 +2°C° 0.6 mm 1 mps 690 mmHg 92%
    04:00 0°C° 0.5 mm 0 mps 690 mmHg 92%
    05:00 0°C° 0.5 mm 0 mps 690 mmHg 92%
    06:00 0°C° 0.5 mm 0 mps 691 mmHg 92%
    07:00 +2°C° 0.6 mm 1 mps 691 mmHg 91%
    08:00 +2°C° 0.6 mm 1 mps 691 mmHg 91%
    09:00 +3°C° 0.6 mm 1 mps 691 mmHg 90%
    10:00 +3°C° 0.8 mm 1 mps 690 mmHg 91%
    11:00 +3°C° 0.8 mm 1 mps 690 mmHg 92%
    12:00 +3°C° 0.8 mm 2 mps 690 mmHg 93%
    13:00 +4°C° 1.4 mm 1 mps 689 mmHg 94%
    14:00 +3°C° 1.4 mm 1 mps 689 mmHg 94%
    15:00 +3°C° 1.4 mm 1 mps 689 mmHg 95%
    16:00 +3°C° 1 mm 1 mps 689 mmHg 95%
    17:00 +3°C° 1 mm 1 mps 689 mmHg 95%
    18:00 +2°C° 1 mm 0 mps 690 mmHg 96%
    19:00 +2°C° 0.3 mm 0 mps 690 mmHg 96%
    20:00 +2°C° 0.3 mm 0 mps 690 mmHg 96%
    21:00 +2°C° 0.3 mm 0 mps 691 mmHg 96%
    22:00 +2°C° 0.7 mm 0 mps 691 mmHg 96%
    23:00 +2°C° 0.7 mm 0 mps 691 mmHg 97%
    Show more